[[{"header":{"parameterUnit":"m.s-1","parameterCategory":1,"la1":30.2991,"la2":30.254,"lo1":-89.0895,"lo2":-89.0444,"dy":0.0017,"dx":0.0017,"nx":28,"ny":28,"refTime":"2024-02-21T03:00:00:Z","depth":0,"parameterNumber":2,"parameterNumberName":"U-component_of_WINDS"},"data":[0,0,0,0,0,0,0,0,0,0,0,0,0,0,0,0,0,0,0,0,0,0,0,0,0,0,0,0,0,0,0,0,0,0,0,0,0,0,0,0,0,0,0,0,0,0,0,0,0,0,0,0,0,0,0,0,0,0,3.7616,3.7617,0,3.7665,3.7666,3.7666,3.7603,3.7601,3.7598,3.7596,3.7649,3.7652,3.7656,0,0,0,0,0,0,0,0,0,0,0,0,0,3.7471,3.7474,3.7616,3.7617,3.7617,3.7665,3.7666,3.7666,3.7603,3.7601,3.7598,3.7595,3.7648,3.7652,3.7656,0,0,0,0,0,0,0,0,0,0,0,0,0,3.7529,3.7475,3.7616,3.7592,3.759,3.7665,3.7666,3.7667,3.7604,3.7601,3.7597,3.7594,3.7646,3.7652,3.7657,3.7759,0,0,3.7673,3.7676,0,0,0,0,0,0,0,0,3.7525,3.7534,3.7595,3.7593,3.7592,3.7624,3.7634,3.7698,3.7605,3.7599,3.7596,3.7592,3.7644,3.7649,3.7666,3.7762,3.7764,3.7674,3.7677,3.7679,3.7681,0,0,0,0,0,0,0,3.7522,3.7532,3.7636,3.7596,3.7594,3.7579,3.7584,3.7646,3.764,3.7599,3.7595,3.7601,3.7642,3.7661,3.7667,3.7765,3.7674,3.7678,3.7682,3.7684,3.7947,3.7951,0,0,0,0,0,0,3.752,3.7529,3.7634,3.7637,3.7549,3.7585,3.7589,3.7617,3.7639,3.7639,3.7604,3.7598,3.7654,3.7661,3.7668,3.779,3.7679,3.7684,3.7687,3.7943,3.7948,3.7952,0,0,0,0,0,0,3.7517,3.753,3.7632,3.7582,3.7594,3.7591,3.7623,3.762,3.7639,3.7643,3.7642,3.7624,3.7651,3.7661,3.7737,3.7791,3.7687,3.7691,3.7939,3.7945,3.795,3.8033,0,0,0,0,0,0,3.7513,3.7529,3.7567,3.7583,3.7596,3.7699,3.7626,3.7624,3.7648,3.764,3.7661,3.7662,3.7649,3.7729,3.7742,3.7796,3.7696,3.7934,3.7941,3.7948,3.8026,3.8041,3.8054,0,0,0,0,0,3.7508,3.7589,3.757,3.7583,3.7644,3.7702,3.771,3.7694,3.7652,3.7691,3.7694,3.7661,3.7783,3.7738,3.7752,3.7808,3.7931,3.7939,3.7948,3.8019,3.8038,3.8054,0,0,0,0,0,0,3.7581,3.7591,3.7569,3.7657,3.768,3.7692,3.774,3.7714,3.7749,3.774,3.7719,3.7724,3.7806,3.7814,3.7764,3.7908,3.785,3.7862,3.79,3.7917,3.7931,3.7928,3.77,0,0,0,0,0,3.7607,3.7653,3.7659,3.7737,3.7749,3.7743,3.7768,3.7753,3.7775,3.7784,3.7793,3.7816,3.786,3.7889,3.7929,3.8027,3.803,3.8072,3.8086,3.8098,3.8109,3.8161,3.818,3.798,3.798,3.798,0,0,3.7662,3.7673,3.7703,3.7752,3.7767,3.7816,3.7751,3.7805,3.7842,3.7793,3.7865,3.7872,3.7897,3.7984,3.8023,3.7994,3.8165,3.8109,3.8118,3.8122,3.8172,3.8191,3.8207,3.7986,3.7985,3.7984,0,0,3.7786,3.7799,3.7865,3.7882,3.7906,3.7901,3.7917,3.7934,3.7936,3.8008,3.7973,3.8016,3.8091,3.8111,3.813,3.8263,3.8234,3.8277,3.8352,3.8403,3.8419,3.8433,3.848,3.8498,3.8288,3.8288,3.8288,0,3.7852,3.7923,3.7903,3.796,3.7982,3.794,3.8007,3.8025,3.8061,3.8078,3.8045,3.8139,3.8153,3.8244,3.8276,3.8294,3.8312,3.8275,3.8418,3.8432,3.8444,3.849,3.8508,3.8293,3.8292,3.8292,3.8291,0,3.8002,3.8052,3.8103,3.8138,3.8167,3.8229,3.8219,3.825,3.8233,3.8233,3.8307,3.8322,3.8365,3.8386,3.837,3.8475,3.8456,3.8421,3.8362,3.8469,3.8511,3.8528,3.83,3.8298,3.8297,3.8296,0,0,3.8173,3.8197,3.8216,3.8232,3.8255,3.8294,3.8355,3.8396,3.8423,3.845,3.8501,3.8566,3.8533,3.8556,3.8542,3.8587,3.8692,3.8546,3.8547,3.8573,3.8809,3.8835,3.8856,3.8673,3.8676,3.8679,3.8807,0,3.8298,3.8401,3.8386,3.8486,3.8533,3.8493,3.8546,3.8567,3.8568,3.8609,3.861,3.8657,3.861,3.8623,3.8666,3.867,3.8739,3.8661,3.872,3.8723,3.8715,3.8878,3.8906,3.9026,3.8823,3.8826,3.8828,0,3.8457,3.8489,3.8594,3.8611,3.863,3.8677,3.8714,3.8753,3.8776,3.8774,3.8799,3.8777,3.8839,3.8779,3.8863,3.881,3.8834,3.884,3.8844,3.8849,3.8782,3.8887,3.9064,3.9082,3.8854,3.8852,3.885,0,3.8572,3.8641,3.8713,3.8728,3.8749,3.8783,3.8794,3.8814,3.884,3.8872,3.8889,3.8929,3.895,3.8982,3.8971,3.8929,3.9058,3.8997,3.9059,3.9059,3.9088,3.9086,3.9271,3.9103,3.9103,3.9103,3.9102,0,3.8712,3.8778,3.8765,3.8809,3.8882,3.8863,3.8937,3.8942,3.896,3.9006,3.8975,3.9018,3.9002,3.9044,3.9037,3.9108,3.9118,3.9119,3.9116,3.9121,3.9122,3.9137,3.9128,3.9107,3.9106,3.9105,3.9105,0,3.8852,3.8846,3.8922,3.8936,3.8941,3.8994,3.9006,3.9048,3.9047,3.9105,3.9118,3.9117,3.9165,3.9158,3.9212,3.9207,3.9296,3.9283,3.9288,3.9285,3.9347,3.9341,3.9548,3.9574,3.939,3.9391,3.9393,0,3.8942,3.8992,3.9012,3.9039,3.9053,3.9098,3.9124,3.9109,3.9137,3.9168,3.9206,3.9252,3.9288,3.9367,3.9372,3.9413,3.9401,3.9471,3.9407,3.9411,3.9402,3.9399,3.9404,3.9483,3.9485,3.9487,3.9488,0,3.9103,3.9098,3.9136,3.9175,3.9207,3.9236,3.9263,3.9287,3.9274,3.9308,3.9357,3.9385,3.944,3.9487,3.9526,3.9537,3.9511,3.9508,3.9525,3.9531,3.9532,3.9532,3.9322,3.9504,3.9502,3.9501,3.95,3.95,3.9221,3.9263,3.9284,3.9328,3.9347,3.9372,3.9412,3.9416,3.9457,3.95,3.9489,3.9545,3.9567,3.9617,3.9633,3.9677,3.9651,3.9675,3.9681,3.9687,3.9694,3.9525,3.9684,3.9683,3.9683,3.9682,3.9682,0,3.938,3.9391,3.9433,3.947,3.9506,3.9478,3.9506,3.9537,3.9587,3.961,3.9645,3.9702,3.9747,3.9755,3.9797,3.9831,3.982,3.9843,3.984,3.9843,3.9715,3.9696,3.9851,3.9851,3.9851,3.9851,3.9851,3.9851,3.9467,3.9538,3.9535,3.9615,3.9626,3.968,3.9698,3.9722,3.974,3.9805,3.9841,3.9846,3.9863,3.9907,3.9947,3.9948,3.9965,3.9993,3.9989,3.9869,3.9852,3.9836,3.9819,3.9997,3.9997,4.0114,4.0115,4.0116]},{"header":{"parameterUnit":"m.s-1","parameterCategory":1,"la1":30.2991,"la2":30.254,"lo1":-89.0895,"lo2":-89.0444,"dy":0.0017,"dx":0.0017,"nx":28,"ny":28,"refTime":"2024-02-21T03:00:00:Z","depth":0,"parameterNumber":3,"parameterNumberName":"V-component_of_WINDS"},"data":[0,0,0,0,0,0,0,0,0,0,0,0,0,0,0,0,0,0,0,0,0,0,0,0,0,0,0,0,0,0,0,0,0,0,0,0,0,0,0,0,0,0,0,0,0,0,0,0,0,0,0,0,0,0,0,0,0,0,5.1836,5.1838,0,5.2004,5.2006,5.2008,5.2022,5.202,5.2018,5.2017,5.2184,5.2189,5.2196,0,0,0,0,0,0,0,0,0,0,0,0,0,5.1523,5.1528,5.1836,5.1838,5.184,5.2004,5.2006,5.2008,5.2022,5.202,5.2018,5.2016,5.2182,5.2189,5.2196,0,0,0,0,0,0,0,0,0,0,0,0,0,5.1671,5.153,5.1836,5.1867,5.1872,5.2003,5.2006,5.2009,5.2023,5.202,5.2017,5.2015,5.2179,5.2188,5.2197,5.2307,0,0,5.2225,5.2229,0,0,0,0,0,0,0,0,5.1663,5.1683,5.186,5.1865,5.187,5.199,5.1957,5.2109,5.2024,5.1965,5.2017,5.2014,5.2121,5.2135,5.2172,5.2315,5.2322,5.2226,5.2231,5.2235,5.2238,0,0,0,0,0,0,0,5.1653,5.1676,5.1902,5.1863,5.1869,5.1871,5.1889,5.1986,5.2056,5.197,5.1972,5.1992,5.2123,5.2163,5.2176,5.2325,5.2226,5.2234,5.2239,5.2243,5.2568,5.257,0,0,0,0,0,0,5.1637,5.1667,5.1897,5.1907,5.1758,5.1879,5.1899,5.1954,5.2055,5.2068,5.1994,5.1992,5.2149,5.2165,5.2182,5.2319,5.2235,5.2244,5.2249,5.2564,5.2568,5.2572,0,0,0,0,0,0,5.163,5.1657,5.189,5.1788,5.1818,5.1887,5.1948,5.1959,5.1999,5.2073,5.2085,5.2022,5.2147,5.2169,5.2277,5.2324,5.2248,5.2256,5.2561,5.2566,5.257,5.2592,0,0,0,0,0,0,5.1621,5.1655,5.1699,5.1789,5.1823,5.1984,5.1951,5.1964,5.2015,5.2014,5.2103,5.2115,5.2147,5.2263,5.2286,5.2336,5.2264,5.2557,5.2563,5.2568,5.2588,5.2597,5.2605,0,0,0,0,0,5.161,5.1697,5.1701,5.1729,5.188,5.1987,5.2006,5.2043,5.2019,5.2063,5.211,5.2112,5.2315,5.2274,5.23,5.2353,5.2554,5.2561,5.2568,5.2584,5.2595,5.2605,0,0,0,0,0,0,5.1609,5.1709,5.1715,5.1834,5.1902,5.1989,5.2046,5.2054,5.2129,5.2124,5.2165,5.2185,5.2291,5.2333,5.2285,5.2465,5.2432,5.2444,5.2435,5.2447,5.2455,5.2443,5.2271,0,0,0,0,0,5.1623,5.1703,5.1786,5.1883,5.1917,5.1975,5.2023,5.2046,5.2117,5.2146,5.2201,5.2269,5.2348,5.2399,5.2476,5.2593,5.2612,5.2642,5.2651,5.2658,5.2669,5.2734,5.2749,5.2595,5.2595,5.2594,0,0,5.1652,5.1717,5.1764,5.1884,5.194,5.2021,5.1999,5.2086,5.2146,5.2158,5.2264,5.2307,5.2385,5.2498,5.2551,5.2536,5.2715,5.2667,5.2672,5.2679,5.2743,5.2757,5.277,5.2599,5.2599,5.2598,0,0,5.1747,5.1804,5.1892,5.1948,5.2033,5.2071,5.2092,5.2178,5.2208,5.2315,5.2326,5.2397,5.2533,5.2588,5.2634,5.275,5.2754,5.2774,5.282,5.2884,5.2896,5.2907,5.2949,5.2963,5.2784,5.2784,5.2784,0,5.1772,5.1896,5.1935,5.2022,5.2074,5.2091,5.2179,5.2231,5.2336,5.2371,5.2353,5.2524,5.2578,5.2704,5.2733,5.2769,5.2794,5.2764,5.2891,5.2903,5.2913,5.2954,5.2969,5.2786,5.2786,5.2785,5.2785,0,5.1923,5.2009,5.2069,5.2173,5.2231,5.2318,5.2369,5.2424,5.2441,5.248,5.2589,5.2654,5.2745,5.2776,5.2793,5.2905,5.2894,5.2883,5.285,5.2929,5.2968,5.2984,5.2789,5.2788,5.2787,5.2787,0,0,5.2022,5.2147,5.2168,5.2216,5.2311,5.2377,5.2464,5.2555,5.2601,5.2672,5.2746,5.2861,5.2852,5.2904,5.2927,5.2982,5.3071,5.2965,5.2967,5.2983,5.3199,5.3207,5.3225,5.3073,5.3076,5.3079,5.3193,0,5.2129,5.2288,5.2325,5.246,5.254,5.2557,5.2633,5.2698,5.2737,5.2809,5.2851,5.2933,5.2914,5.2946,5.3001,5.3048,5.3115,5.304,5.3142,5.3145,5.3123,5.3245,5.3254,5.3358,5.3208,5.3211,5.3212,0,5.2274,5.2352,5.2495,5.2581,5.2616,5.2684,5.277,5.2839,5.2913,5.2937,5.2996,5.3013,5.3103,5.3066,5.319,5.3138,5.3182,5.3211,5.3216,5.3228,5.3184,5.3261,5.3393,5.3408,5.3236,5.3235,5.3233,0,5.2334,5.2473,5.2578,5.2617,5.2719,5.2767,5.2811,5.2882,5.2935,5.3009,5.3044,5.3126,5.3172,5.3235,5.3274,5.3243,5.3396,5.3361,5.3418,5.3417,5.345,5.3448,5.3592,5.3476,5.3476,5.3476,5.3475,0,5.2449,5.2537,5.2606,5.267,5.2769,5.281,5.2905,5.2949,5.3013,5.3085,5.3103,5.317,5.3217,5.3289,5.332,5.3418,5.3438,5.346,5.3467,5.346,5.3457,5.3489,5.3483,5.348,5.3479,5.3478,5.3477,0,5.2533,5.2583,5.2698,5.2785,5.2809,5.2878,5.2952,5.3014,5.3053,5.3144,5.3168,5.323,5.3316,5.3361,5.3469,5.3489,5.36,5.3602,5.3576,5.3579,5.3635,5.3629,5.3805,5.3831,5.3697,5.3698,5.3699,0,5.2604,5.2672,5.2767,5.2818,5.2864,5.2945,5.2999,5.3042,5.3097,5.3187,5.3238,5.3326,5.3399,5.3536,5.359,5.3672,5.3677,5.3733,5.3689,5.3679,5.3679,5.3675,5.3682,5.3741,5.3742,5.3743,5.3744,0,5.2725,5.2747,5.2825,5.2913,5.2977,5.3047,5.3116,5.3156,5.321,5.3271,5.3361,5.3418,5.3528,5.3616,5.3702,5.3745,5.3754,5.3757,5.3775,5.3768,5.375,5.3762,5.3598,5.3753,5.3752,5.3752,5.3751,5.3751,5.2805,5.2867,5.2944,5.3031,5.3088,5.3152,5.3216,5.3264,5.3341,5.3436,5.3456,5.3551,5.3623,5.374,5.3786,5.386,5.3848,5.3873,5.388,5.3886,5.3889,5.3738,5.3875,5.3875,5.3875,5.3875,5.3875,0,5.2928,5.2979,5.3059,5.3156,5.3224,5.3228,5.3304,5.3361,5.3445,5.3512,5.3585,5.3688,5.3772,5.3832,5.3918,5.3966,5.3972,5.3987,5.3984,5.3994,5.3894,5.3871,5.3981,5.3981,5.3981,5.3981,5.3981,5.3981,5.3,5.3106,5.3136,5.3269,5.3319,5.3415,5.3458,5.3517,5.3571,5.3687,5.3758,5.3797,5.3862,5.3952,5.4029,5.4045,5.4076,5.4091,5.4106,5.4012,5.4001,5.399,5.3969,5.4097,5.4097,5.42,5.4201,5.4202]}]]